This demonstration page uses our WeatherBlox Daily Observations layout. Learn more.

Left ArrowRight Arrow

Hourly Observations for March 12, 2021

Temp ( °F °C ) Dew Point ( °F °C ) Humidity (%) Winds ( mph kmh ) Pressure ( in mb ) Visibility ( mi km ) Precip ( " mm )
12:54 am 00:54 Clear 36 2.2 24 -4.4 62 62 N 8 13 30.37 1028 10 16 N/A
1:54 am 01:54 Clear 34 1.1 23 -5 64 64 N 5 7 30.37 1029 10 16 N/A
2:54 am 02:54 Clear 33 0.6 22 -5.6 64 64 N N/A 30.37 1029 10 16 N/A
3:54 am 03:54 Clear 32 undefined 21 -6.1 64 64 N N/A 30.37 1028 10 16 N/A
4:54 am 04:54 Clear 26 -3.3 18 -7.8 71 71 N 7 11 30.38 1029 10 16 N/A
5:54 am 05:54 Clear 32 undefined 20 -6.7 61 61 N N/A 30.42 1030 10 16 N/A
6:54 am 06:54 Sunny 30 -1.1 21 -6.1 69 69 NNE 3 6 30.44 1031 10 16 N/A
7:54 am 07:54 Sunny 33 0.6 25 -3.9 72 72 N 7 11 30.45 1031 10 16 N/A
8:54 am 08:54 Sunny 39 3.9 25 -3.9 57 57 ENE 10 17 30.42 1030 10 16 N/A
9:54 am 09:54 Partly Cloudy 43 6.1 25 -3.9 49 49 E 9 15 30.44 1031 10 16 N/A
10:54 am 10:54 Partly Cloudy 50 10 26 -3.3 39 39 E 9 15 30.43 1031 10 16 N/A
11:54 am 11:54 Sunny 51 10.6 23 -5 33 33 ESE 14 22 30.45 1031 10 16 N/A
12:54 pm 12:54 Sunny 51 10.6 22 -5.6 32 32 ESE 12 19 30.42 1030 10 16 N/A
1:54 pm 13:54 Sunny 52 11.1 22 -5.6 31 31 ESE 15 24 30.40 1030 10 16 N/A
2:54 pm 14:54 Sunny 52 11.1 24 -4.4 34 34 SE 9 15 30.43 1030 10 16 N/A
3:54 pm 15:54 Mostly Sunny 51 10.6 23 -5 33 33 ESE 12 19 30.41 1030 10 16 N/A
4:54 pm 16:54 Sunny 51 10.6 23 -5 33 33 E 12 19 30.41 1030 10 16 N/A
5:54 pm 17:54 Mostly Cloudy 50 10 21 -6.1 32 32 E 8 13 30.40 1030 10 16 N/A
6:54 pm 18:54 Mostly Cloudy 49 9.4 22 -5.6 35 35 E 10 17 30.40 1030 10 16 N/A
7:54 pm 19:54 Mostly Cloudy 46 7.8 22 -5.6 38 38 E 7 11 30.41 1030 10 16 N/A
8:54 pm 20:54 Mostly Cloudy 45 7.2 23 -5 42 42 ESE 8 13 30.42 1030 10 16 N/A
9:54 pm 21:54 Cloudy 46 7.8 24 -4.4 42 42 ESE 8 13 30.42 1030 10 16 N/A
10:54 pm 22:54 Cloudy 44 6.7 25 -3.9 47 47 NE 8 13 30.42 1030 10 16 N/A
11:54 pm 23:54 Cloudy 44 6.7 26 -3.3 49 49 E 10 17 30.41 1030 10 16 N/A

Powered by AerisWeather